Location: Newark
(45.5167°N, 11.1667°E)
Time: 11:16:21
(UTC+00:00)

Transit 2A - All Passes

Search period start: 16 December 2019 00:00
Search period end: 26 December 2019 00:00
Orbit: 602 x 957 km, 66.7° (Epoch: 15 December)

Date Brightness Start Highest point End Pass type
(mag) Time Alt. Az. Time Alt. Az. Time Alt. Az.
16 Dec - 03:28:58 10° SE 03:31:01 13° ESE 03:33:03 10° E visible
16 Dec - 05:08:53 10° SW 05:13:37 78° NW 05:18:04 10° NNE visible
16 Dec - 06:55:02 10° WNW 06:57:27 14° NW 06:59:49 10° N daylight
16 Dec - 12:10:15 10° N 12:13:42 22° NE 12:17:16 10° E daylight
16 Dec - 13:52:45 10° NW 13:57:08 57° WSW 14:01:48 10° SSE daylight
17 Dec - 04:34:47 10° SSW 04:39:30 71° ESE 04:43:56 10° NE visible
17 Dec - 06:19:51 10° W 06:23:04 19° NW 06:26:11 10° N daylight
17 Dec - 11:36:32 10° N 11:39:21 16° NE 11:42:15 10° ENE daylight
17 Dec - 13:18:34 10° NW 13:23:02 85° WSW 13:27:48 10° SSE daylight
18 Dec - 04:00:54 10° S 04:05:26 46° ESE 04:09:42 10° NE visible
18 Dec - 05:44:57 10° W 05:48:44 25° NW 05:52:24 10° NNE visible
18 Dec - 11:03:01 10° N 11:04:57 12° NE 11:06:53 10° ENE daylight
18 Dec - 12:44:29 10° NNW 12:48:54 65° NE 12:53:37 10° SE daylight
18 Dec - 14:28:52 10° WNW 14:31:36 16° WSW 14:34:25 10° SW daylight
19 Dec - 03:27:15 10° S 03:31:24 31° ESE 03:35:20 10° NE visible
19 Dec - 05:10:15 10° WSW 05:14:28 34° NW 05:18:30 10° NNE visible
19 Dec - 12:10:28 10° NNW 12:14:44 45° NE 12:19:15 10° SE daylight
19 Dec - 13:54:02 10° WNW 13:57:38 23° WSW 14:01:25 10° SSW daylight
20 Dec - 02:53:55 10° SSE 02:57:25 21° ESE 03:00:46 10° ENE visible
20 Dec - 04:35:44 10° SW 04:40:15 49° NW 04:44:32 10° NNE visible
20 Dec - 06:24:06 10° NW 06:24:27 10° NNW 06:24:47 10° NNW daylight
20 Dec - 11:36:31 10° NNW 11:40:30 32° NE 11:44:42 10° ESE daylight
20 Dec - 13:19:32 10° NW 13:23:38 35° WSW 13:28:00 10° S daylight
21 Dec - 02:21:07 10° SE 02:23:28 14° ESE 02:25:45 10° ENE visible
21 Dec - 04:01:25 10° SW 04:06:05 72° NW 04:10:30 10° NNE visible
21 Dec - 05:47:49 10° WNW 05:50:00 13° NW 05:52:07 10° N visible
21 Dec - 11:02:38 10° N 11:06:13 23° NE 11:09:57 10° E daylight
21 Dec - 12:45:13 10° NW 12:49:35 52° WSW 12:54:16 10° SSE daylight
22 Dec - 03:27:17 10° SSW 03:31:58 77° ESE 03:36:23 10° NE visible
22 Dec - 05:12:34 10° W 05:15:35 17° NW 05:18:33 10° N visible
22 Dec - 10:28:52 10° N 10:31:53 18° NE 10:34:59 10° E daylight
22 Dec - 12:11:01 10° NW 12:15:30 79° WSW 12:20:20 10° SSE daylight
23 Dec - 02:53:21 10° SSW 02:57:53 50° ESE 03:02:11 10° NE visible
23 Dec - 04:37:36 10° W 04:41:14 23° NW 04:44:47 10° N visible
23 Dec - 09:55:17 10° N 09:57:29 13° NE 09:59:44 10° ENE daylight
23 Dec - 11:36:54 10° NNW 11:41:23 71° NE 11:46:11 10° SE daylight
23 Dec - 13:21:30 10° WNW 13:24:02 15° WSW 13:26:40 10° SW daylight
24 Dec - 02:19:39 10° S 02:23:51 33° ESE 02:27:51 10° NE night (unlit)
24 Dec - 04:02:52 10° WSW 04:06:58 32° NW 04:10:55 10° NNE visible
24 Dec - 09:22:25 10° NNE 09:23:01 10° NNE 09:23:38 10° NE daylight
24 Dec - 11:02:52 10° NNW 11:07:13 48° NE 11:11:51 10° SE daylight
24 Dec - 12:46:35 10° WNW 12:50:05 22° WSW 12:53:47 10° SSW daylight
25 Dec - 01:46:15 10° SSE 01:49:51 22° ESE 01:53:19 10° ENE night (unlit)
25 Dec - 03:28:19 10° SW 03:32:44 45° NW 03:36:58 10° NNE visible
25 Dec - 10:28:54 10° NNW 10:33:00 34° NE 10:37:20 10° ESE daylight
25 Dec - 12:12:02 10° NW 12:16:05 32° WSW 12:20:25 10° S daylight
